Historique des stations

Station météo de Le Grand-Pressigny

Altitude de la station : 93 m







Données météorologiques pour le 24/09/2022
Date
Heure
Températures Humidité Point de rosée Vitesse
du vent
Direction Rafales Windchill Pression Pluviométrie
Cumul
Date
Heure
Températures Humidité Point de rosée Vitesse
du vent
Direction Rafales Windchill Pression Pluviométrie
Cumul
24/09/2022 22:4014.7 °C81 %11.5 °C---01015 hPa0.0 mm
24/09/2022 22:3014.9 °C80 %11.5 °C---01015 hPa0.0 mm
24/09/2022 22:1015.5 °C78 %11.7 °C---01015 hPa0.0 mm
24/09/2022 22:0015.8 °C77 %11.8 °C---01015 hPa0.0 mm
24/09/2022 21:4016.4 °C77 %12.4 °C---01015 hPa0.0 mm
24/09/2022 21:3016.7 °C76 %12.4 °C---01014 hPa0.0 mm
24/09/2022 21:1017.3 °C77 %13.2 °C---01014 hPa0.0 mm
24/09/2022 21:0017.5 °C77 %13.4 °C---01014 hPa0.0 mm
24/09/2022 20:4017.4 °C76 %13.1 °C---01014 hPa0.0 mm
24/09/2022 20:3017.6 °C75 %13.1 °C---01014 hPa0.0 mm
24/09/2022 20:1017.6 °C74 %12.9 °C---01014 hPa0.0 mm
24/09/2022 20:0017.7 °C72 %12.6 °C---01014 hPa0.0 mm
24/09/2022 19:4017.7 °C73 %12.8 °C---01014 hPa0.0 mm
24/09/2022 19:3017.3 °C77 %13.3 °C---01014 hPa0.0 mm
24/09/2022 19:1018.8 °C71 %13.5 °C---01014 hPa0.0 mm
24/09/2022 19:0019.4 °C68 %13.4 °C---01014 hPa0.0 mm
24/09/2022 18:4018.8 °C72 %13.7 °C---01014 hPa0.0 mm
24/09/2022 18:3018.7 °C73 %13.7 °C---01014 hPa0.0 mm
24/09/2022 18:1018 °C77 %13.9 °C---01014 hPa0.0 mm
24/09/2022 18:0017.9 °C78 %14 °C---01014 hPa0.0 mm
24/09/2022 17:4017.7 °C81 %14.4 °C---01014 hPa0.0 mm
24/09/2022 17:3017.4 °C79 %13.7 °C---01014 hPa0.0 mm
24/09/2022 17:1017.9 °C80 %14.4 °C---01015 hPa0.0 mm
24/09/2022 17:0017.4 °C83 %14.5 °C---01015 hPa0.0 mm
24/09/2022 16:4016.8 °C85 %14.2 °C---01015 hPa0.0 mm
24/09/2022 16:3016.9 °C82 %13.8 °C---01015 hPa0.0 mm
24/09/2022 16:1017.8 °C75 %13.3 °C---01015 hPa0.0 mm
24/09/2022 16:0017.9 °C75 %13.4 °C---01015 hPa0.0 mm
24/09/2022 15:4017.7 °C75 %13.2 °C---01015 hPa0.0 mm
24/09/2022 15:3017.6 °C76 %13.3 °C---01015 hPa0.0 mm
24/09/2022 15:1017.8 °C74 %13.1 °C---01015 hPa0.0 mm
24/09/2022 15:0018.2 °C72 %13.1 °C---01015 hPa0.0 mm
24/09/2022 14:5018.3 °C71 %13 °C---01015 hPa0.0 mm
24/09/2022 14:3018.6 °C66 %12.1 °C---01015 hPa0.0 mm
24/09/2022 14:2017.9 °C67 %11.7 °C---01015 hPa0.0 mm
24/09/2022 14:0017.1 °C69 %11.3 °C---01015 hPa0.0 mm
24/09/2022 13:4016.2 °C74 %11.5 °C---01015 hPa0.0 mm
24/09/2022 13:3015.9 °C76 %11.7 °C---01015 hPa0.0 mm
24/09/2022 13:2015.5 °C77 %11.5 °C---01015 hPa0.0 mm
24/09/2022 13:0014.9 °C79 %11.3 °C---01015 hPa0.0 mm
24/09/2022 12:5014.8 °C78 %11 °C---01015 hPa0.0 mm
24/09/2022 12:3014.6 °C79 %11 °C---01015 hPa0.0 mm
24/09/2022 12:1013.9 °C82 %10.9 °C---01015 hPa0.0 mm
24/09/2022 12:0013.6 °C84 %10.9 °C---01015 hPa0.0 mm
24/09/2022 11:4012.6 °C88 %10.6 °C---01015 hPa0.0 mm
24/09/2022 11:3012.1 °C89 %10.3 °C---01015 hPa0.0 mm
24/09/2022 11:1011.1 °C93 %10 °C---01015 hPa0.0 mm
24/09/2022 11:0010.6 °C93 %9.5 °C---01015 hPa0.0 mm
24/09/2022 10:409.9 °C93 %8.8 °C---01015 hPa0.0 mm
24/09/2022 10:309.7 °C92 %8.5 °C---01015 hPa0.0 mm
24/09/2022 10:109.7 °C92 %8.5 °C---01015 hPa0.0 mm
24/09/2022 10:009.8 °C92 %8.5 °C---01015 hPa0.0 mm
24/09/2022 09:409.9 °C92 %8.7 °C---01014 hPa0.0 mm
24/09/2022 09:309.9 °C92 %8.7 °C---01014 hPa0.0 mm
24/09/2022 09:109.9 °C92 %8.7 °C---01014 hPa0.0 mm
24/09/2022 09:009.9 °C92 %8.7 °C---01014 hPa0.0 mm
24/09/2022 08:409.8 °C92 %8.5 °C---01014 hPa0.0 mm
24/09/2022 08:309.7 °C92 %8.5 °C---01014 hPa0.0 mm
24/09/2022 08:109.7 °C92 %8.4 °C---01014 hPa0.0 mm
24/09/2022 08:009.6 °C92 %8.3 °C---01014 hPa0.0 mm
24/09/2022 07:409.3 °C92 %8 °C---01014 hPa0.0 mm
24/09/2022 07:309.2 °C92 %7.9 °C---01015 hPa0.0 mm
24/09/2022 07:109 °C92 %7.8 °C---01015 hPa0.0 mm
24/09/2022 07:008.9 °C91 %7.5 °C---01015 hPa0.0 mm
24/09/2022 06:408.9 °C90 %7.3 °C---01015 hPa0.0 mm
24/09/2022 06:309.1 °C90 %7.6 °C---01015 hPa0.0 mm
24/09/2022 06:209.3 °C90 %7.8 °C---01015 hPa0.0 mm
24/09/2022 06:009.7 °C89 %8 °C---01015 hPa0.0 mm
24/09/2022 05:4010.2 °C89 %8.4 °C---01015 hPa0.0 mm
24/09/2022 05:3010.4 °C89 %8.7 °C---01015 hPa0.0 mm
24/09/2022 05:1010.4 °C87 %8.3 °C---01016 hPa0.0 mm
24/09/2022 05:0010.7 °C87 %8.6 °C---01016 hPa0.0 mm
24/09/2022 04:4011.2 °C87 %9.1 °C---01016 hPa0.0 mm
24/09/2022 04:3011.4 °C87 %9.3 °C---01016 hPa0.0 mm
24/09/2022 04:1011.3 °C87 %9.2 °C---01016 hPa0.0 mm
24/09/2022 04:0011.3 °C87 %9.2 °C---01016 hPa0.0 mm
24/09/2022 03:4011.5 °C86 %9.2 °C---01016 hPa0.0 mm
24/09/2022 03:3011.7 °C86 %9.4 °C---01016 hPa0.0 mm
24/09/2022 03:1011.9 °C85 %9.4 °C---01016 hPa0.0 mm
24/09/2022 03:0012.1 °C85 %9.6 °C---01016 hPa0.0 mm
24/09/2022 02:5012.2 °C84 %9.5 °C---01016 hPa0.0 mm
24/09/2022 02:3012.3 °C85 %9.8 °C---01016 hPa0.0 mm
24/09/2022 02:2012.3 °C84 %9.7 °C---01016 hPa0.0 mm
24/09/2022 02:0012.4 °C83 %9.6 °C---01016 hPa0.0 mm
24/09/2022 01:4012.4 °C82 %9.5 °C---01016 hPa0.0 mm
24/09/2022 01:3012.4 °C83 %9.6 °C---01016 hPa0.0 mm
24/09/2022 01:1012.5 °C83 %9.7 °C---01016 hPa0.0 mm
24/09/2022 01:0012.6 °C82 %9.6 °C---01016 hPa0.0 mm
24/09/2022 00:5012.7 °C81 %9.5 °C---01016 hPa0.0 mm
24/09/2022 00:3013 °C79 %9.4 °C---01016 hPa0.0 mm
24/09/2022 00:2013.2 °C78 %9.5 °C---01016 hPa0.0 mm
24/09/2022 00:0013.6 °C77 %9.7 °C---01016 hPa0.0 mm


Minima :

Température : 8.9 °C
Humidité : 66 %
Point de rosée : 7.3 °C
Vent moyen : - km/h
Windchill : 0
Pression atm. : 1014 hPa
Maxima :

Température : 19.4 °C
Humidité : 93 %
Point de rosée : 14.5 °C
Vent moyen : 0 km/h
Windchill : 0
Pression atm. : 1016 hPa
Rafales max : - km/h
Cumul de pluie sur 24H : 0 mm

Le Grand-Pressigny est une commune du département Indre-et-Loire (37).
La station météorologique du réseau de l'association la plus proche de Le Grand-Pressigny est celle de Les Ormes



Icône Facebook Association Météo Centre Icône Twitter Association Météo Centre Icône Chaîne Youtube Association Météo Centre Icône contact Association Météo Centre Icône Insta Association Météo Centre